Temp
25 24 23 22 21 18 21 23 22 23 23 20 21 22 21 17 21 20 15 15 16 16 16 17 17 20 20 20 20 20 18 18 18 19 19 19 19 19 19 19 19 19 19 19 19 20 19 19 19
25 23 23 17 19 20 21 22 25 22 20 21 20 20 19 18 18 16 16 15 15 16 16 16 16 16 18 20 18 19 18 19 18 18 18 18 18 19 19 19 19 19 19 19 19 19 19 19 19
24 23 20 16 15 19 21 24 23 21 21 22 19 17 18 18 18 16 14 14 15 15 16 15 15 15 18 18 18 17 17 17 18 18 18 18 18 18 18 18 18 18 19 19 19 19 19 19 19
24 19 16 19 21 21 22 24 23 21 21 19 18 16 16 17 18 16 15 15 15 15 15 16 15 15 16 16 16 17 16 17 17 18 18 18 18 18 18 18 18 18 18 18 18 18 18 18 18
21 16 18 19 20 21 21 23 21 21 21 20 19 16 16 15 15 15 14 14 15 14 15 15 15 14 15 15 14 15 16 17 17 17 17 17 17 17 17 17 17 17 18 18 18 18 18 18 18
18 16 18 20 21 22 21 23 23 23 20 19 17 17 16 15 15 14 15 14 14 15 15 16 15 15 15 15 15 15 16 17 17 18 17 17 17 17 17 16 16 16 17 17 17 18 18 18 18
19 17 19 21 21 22 24 24 23 22 20 19 18 16 15 15 14 14 14 14 14 14 15 14 15 14 14 14 14 14 15 16 17 17 17 17 17 17 17 16 16 15 16 16 16 16 16 17 16
16 17 20 20 21 23 23 23 22 22 20 19 18 15 15 15 14 13 13 13 13 14 14 14 14 14 14 14 14 14 14 14 14 15 15 15 16 16 15 16 15 15 16 15 16 16 16 16 16
17 18 19 22 23 24 23 24 20 18 19 17 16 17 16 14 14 13 13 12 12 12 12 13 13 14 14 14 13 13 13 13 14 14 13 14 14 14 14 13 13 13 14 15 15 15 15 16 16
18 17 21 22 23 24 24 23 22 21 19 18 15 14 14 13 13 12 12 11 11 11 12 12 13 13 13 13 12 12 12 12 12 12 12 12 12 12 12 12 12 12 12 13 14 15 15 15 15
20 20 21 23 23 21 23 22 21 20 21 18 16 13 13 13 12 12 11 11 11 11 11 12 12 12 12 12 11 12 12 11 11 11 11 10 11 11 11 10 11 11 11 11 12 13 14 13 13
22 21 22 21 20 20 22 20 21 18 22 19 15 13 13 12 12 11 10 10 10 10 10 11 11 12 11 11 11 11 11 10 10 10 10 10 9 9 8 9 8 8 9 9 9 9 9 11 12
20 21 20 21 19 19 20 21 21 19 17 15 14 14 13 12 11 11 11 10 10 10 10 10 11 11 10 11 10 10 9 9 8 9 8 8 8 7 7 6 5 5 5 5 5 6 6 6 8
19 19 18 19 20 20 21 21 21 19 14 15 14 12 12 11 10 9 9 9 9 9 9 9 10 9 9 9 9 8 8 7 8 7 7 7 6 5 5 5 4 4 3 3 3 3 3 4 4
19 19 18 21 19 22 19 21 19 17 15 14 14 12 11 10 10 9 9 9 9 9 9 9 9 8 9 8 8 7 6 6 6 6 6 5 5 4 4 4 3 3 3 2 2 1 1 1 2
18 18 18 20 19 20 21 19 19 15 14 13 12 12 10 9 8 9 9 9 8 8 8 8 8 8 7 7 7 6 6 6 5 5 4 4 4 3 3 2 2 1 1 1 -0 0 1 1 1
15 18 19 19 19 20 21 20 20 15 15 12 11 9 8 7 7 8 9 9 8 8 8 8 7 7 7 6 6 5 5 5 4 4 4 3 3 3 2 1 1 1 0 -1 -1 -1 0 0 1
18 18 17 17 19 19 19 19 18 16 15 12 9 8 8 8 6 7 7 7 7 7 7 7 6 5 5 5 5 4 4 3 3 2 2 2 1 1 1 1 0 -1 -1 -2 -2 -1 -1 0 1
17 17 16 15 17 19 17 18 17 16 15 11 9 8 7 7 6 6 6 6 6 6 6 6 6 5 5 5 4 4 2 2 2 1 1 1 1 0 -0 -0 -1 -2 -3 -3 -2 -2 -1 -0 0
16 15 14 15 17 18 16 15 15 15 14 13 9 8 7 5 5 5 5 5 6 5 5 5 5 5 5 4 3 3 2 1 0 0 -0 -0 0 -0 -1 -1 -2 -4 -3 -3 -3 -3 -2 -1 -1
16 16 16 16 17 17 15 15 16 16 13 11 11 9 7 6 5 5 4 4 5 5 5 5 4 4 4 3 3 2 2 1 1 0 -0 -1 -1 -1 -1 -1 -2 -3 -3 -4 -4 -4 -3 -2 -2
15 16 17 17 16 15 16 13 15 16 15 10 8 7 6 6 5 5 4 3 4 4 4 4 3 4 3 3 3 3 1 -0 -2 -1 -1 -1 -1 -1 -1 -2 -2 -3 -4 -4 -4 -4 -4 -3 -2
16 18 18 17 16 14 14 13 13 13 15 11 8 6 5 5 5 4 4 4 4 3 3 3 3 3 2 2 2 2 1 -1 -1 -1 -1 -2 -2 -2 -2 -3 -3 -3 -4 -5 -5 -5 -5 -5 -4
18 17 14 12 12 12 13 13 13 13 15 11 9 8 6 6 6 5 5 4 3 3 3 2 2 1 1 1 1 1 0 -1 -1 -2 -2 -3 -3 -3 -3 -4 -4 -4 -4 -4 -5 -5 -6 -6 -5
16 14 12 12 12 13 15 13 13 13 12 11 9 7 7 7 6 4 3 3 2 2 1 1 1 0 0 1 0 -0 -1 -1 -2 -2 -3 -3 -4 -4 -4 -4 -4 -4 -4 -4 -4 -5 -6 -6 -6
14 14 13 14 13 14 14 13 12 11 10 10 8 7 7 7 7 5 4 3 2 1 1 1 1 -0 -0 -0 -1 -1 -1 -1 -2 -3 -3 -4 -4 -5 -5 -4 -4 -4 -4 -4 -5 -5 -6 -6 -7
16 14 15 15 12 12 12 12 12 10 10 9 8 7 6 6 5 4 3 3 2 2 2 2 1 -0 -0 -1 -1 -2 -2 -1 -2 -3 -3 -4 -4 -5 -5 -4 -4 -5 -5 -5 -5 -6 -7 -8 -7
17 17 14 12 12 12 12 12 11 11 10 9 7 6 6 5 4 3 2 1 2 2 1 1 0 0 -1 -1 -1 -2 -2 -2 -3 -3 -4 -4 -5 -4 -4 -5 -5 -5 -5 -6 -6 -6 -7 -9 -8
14 14 13 13 11 11 10 11 9 11 11 8 8 7 4 4 2 1 1 1 1 1 0 -0 -0 -0 -1 -1 -2 -2 -2 -3 -3 -4 -4 -5 -5 -5 -5 -5 -6 -6 -6 -6 -6 -7 -7 -9 -8
15 14 13 11 12 10 7 11 11 9 9 9 8 7 5 4 1 -1 -0 -0 -0 -1 -1 -0 -1 -1 -1 -1 -2 -2 -3 -3 -4 -4 -5 -5 -5 -5 -6 -6 -6 -7 -7 -7 -7 -8 -8 -8 -8
Height
763 761 761 763 790 802 802 788 775 774 770 767 766 768 775 786 785 800 794 795 797 799 801 801 799 798 796 797 798 800 803 803 802 802 804 804 804 806 806 807 808 808 809 809 809 809 809 810 809
761 761 762 775 805 814 803 780 771 771 771 767 768 771 778 790 788 791 794 795 796 797 800 799 800 799 797 792 800 800 803 803 802 802 803 805 805 806 806 807 808 809 809 809 808 808 809 808 809
760 761 771 794 816 812 801 772 768 769 766 768 777 779 782 789 789 792 794 794 796 798 799 798 799 801 796 794 801 801 805 804 803 803 803 803 804 805 805 806 806 807 807 808 807 807 807 807 807
760 764 779 797 797 786 780 766 762 768 766 769 775 787 788 788 788 790 792 794 796 797 799 798 798 799 795 796 801 802 806 804 803 803 803 803 804 805 804 805 805 805 806 806 806 806 806 805 805
761 775 799 801 795 781 770 763 763 766 768 771 772 789 791 790 788 791 794 796 797 801 801 799 800 799 797 799 804 805 806 804 804 804 803 803 804 804 805 805 805 804 804 804 805 804 804 804 803
774 782 807 808 793 778 770 761 759 762 769 773 779 785 791 790 790 792 793 796 800 801 801 800 801 800 802 805 805 805 805 805 805 804 803 803 804 804 804 805 805 804 803 803 803 802 802 802 801
776 792 801 796 793 782 766 758 764 767 773 776 775 789 792 791 792 794 795 799 800 801 803 804 805 807 806 806 806 806 804 805 805 804 804 805 805 805 805 805 804 803 803 801 802 801 801 800 799
774 787 794 793 793 782 765 762 763 766 773 772 774 787 791 788 791 795 798 800 802 802 804 806 807 807 806 805 805 805 805 806 806 806 805 805 806 805 805 805 803 802 802 800 800 799 798 798 797
769 795 801 784 781 773 764 765 765 767 771 773 775 775 774 780 788 795 797 801 802 804 806 807 807 807 806 806 806 807 807 808 807 806 807 805 806 805 804 803 804 802 800 799 797 796 796 796 795
778 797 787 773 767 768 765 764 764 769 774 775 779 779 781 785 792 794 797 800 803 805 806 807 807 806 806 806 808 809 810 810 809 809 808 806 803 805 804 802 801 801 799 798 796 793 792 792 791
775 784 774 767 765 767 766 767 765 770 774 771 775 781 783 786 791 793 798 802 803 805 806 806 805 805 807 808 810 810 810 811 811 810 808 807 805 804 802 802 799 798 797 794 793 791 789 787 787
775 769 768 767 766 770 768 767 768 770 761 761 766 776 779 786 791 793 797 802 805 808 809 809 810 810 811 811 810 812 812 812 810 808 807 805 804 804 801 799 799 797 794 792 790 788 786 784 782
775 769 769 765 766 767 765 766 765 766 764 764 769 776 780 784 791 796 800 805 808 809 810 810 811 811 812 811 812 811 810 810 810 808 807 806 804 803 800 799 797 795 794 790 787 785 783 781 778
775 773 772 767 765 763 764 762 761 763 766 769 771 777 783 787 791 798 803 806 809 811 811 812 812 812 813 812 813 814 813 812 811 809 807 805 805 803 800 798 796 793 791 789 786 783 779 778 776
773 778 773 764 765 761 764 767 768 765 769 771 775 780 785 789 793 797 802 807 810 812 814 814 814 814 814 813 813 814 814 814 812 810 809 808 806 803 801 798 794 792 790 787 784 781 778 775 773
779 781 788 767 766 763 763 782 765 768 770 777 781 785 790 795 797 800 803 807 812 813 814 815 815 815 814 814 814 813 813 813 813 812 811 808 807 805 802 799 796 793 790 786 784 782 780 777 773
792 791 784 778 768 768 767 773 764 769 772 783 786 790 794 797 801 803 805 808 811 813 815 816 816 815 814 815 815 815 814 813 813 812 810 810 806 806 803 800 798 794 790 788 786 783 780 776 772
791 791 788 788 774 769 771 772 768 769 772 779 789 794 794 797 800 804 806 809 811 813 815 816 816 815 816 817 817 816 815 815 815 814 812 809 809 806 804 801 798 795 791 789 787 784 782 777 772
786 790 796 789 778 774 774 772 770 769 772 780 784 788 793 798 802 805 809 812 814 815 816 817 818 818 817 817 818 817 816 815 814 813 815 812 811 808 806 802 798 795 793 790 788 786 781 776 773
789 793 796 786 775 775 777 778 772 768 772 774 786 789 794 801 806 810 813 815 816 817 818 817 819 819 818 818 818 819 819 818 817 816 817 815 811 810 807 803 800 798 796 792 790 787 783 778 776
788 791 789 785 778 776 780 780 773 769 773 776 779 785 794 799 806 810 813 815 817 818 817 816 818 818 819 820 819 819 819 819 820 819 817 815 814 812 809 807 803 800 797 795 793 790 785 782 778
789 776 777 777 786 796 781 799 777 768 770 782 787 787 791 795 802 807 811 815 815 817 818 817 818 817 819 820 820 820 818 818 820 820 820 818 815 813 811 809 805 803 800 797 795 792 789 784 784
779 768 770 775 786 791 791 799 785 777 772 781 791 793 796 797 799 805 809 811 816 817 818 820 818 816 819 821 820 818 817 820 820 821 820 820 818 816 812 810 808 803 802 799 794 793 789 790 786
765 774 785 793 798 805 789 794 789 780 772 779 787 792 797 799 802 806 809 813 816 818 819 822 819 820 820 823 820 819 818 822 819 820 820 821 818 818 814 811 808 805 801 799 796 795 792 789 786
774 789 806 806 809 798 779 791 781 772 773 776 784 790 793 795 798 802 805 809 813 816 820 822 822 820 821 821 821 821 821 820 821 820 822 821 821 818 816 811 809 807 805 803 798 795 793 790 786
779 785 798 795 796 791 782 785 781 775 778 778 781 786 790 789 790 793 799 804 810 814 816 821 821 822 822 822 825 823 821 821 822 822 822 823 823 822 819 816 811 809 808 804 800 798 796 793 790
771 781 771 782 794 799 788 778 771 776 777 780 783 786 789 790 794 799 803 807 808 810 812 815 819 820 821 824 824 824 824 823 823 824 825 827 826 825 821 817 812 813 811 807 804 801 798 796 793
763 765 784 792 802 796 790 781 781 775 774 779 785 785 785 790 795 798 800 803 807 810 813 817 820 820 822 824 824 824 823 824 826 828 829 830 829 825 822 818 816 816 814 811 808 805 802 799 796
775 777 779 783 796 803 804 781 773 764 763 774 774 776 783 786 791 795 798 802 806 811 813 817 819 820 822 824 825 825 824 827 830 831 831 830 828 826 824 822 820 819 817 814 812 809 806 803 800
769 774 777 795 787 795 820 768 762 767 766 767 771 772 776 781 787 791 794 798 804 809 812 813 817 820 823 825 825 826 827 830 833 832 831 830 828 828 827 826 824 823 821 819 816 814 811 807 803
Wind_Speed
14 9 3 4 4 4 3 4 2 4 2 3 3 2 7 4 1 3 5 9 11 11 6 5 5 8 10 10 9 9 10 13 14 13 10 8 7 6 6 5 4 3 3 3 2 2 4 5 5
11 3 4 2 4 2 5 4 4 2 3 6 6 3 6 4 4 6 4 8 12 12 8 7 7 8 10 12 9 10 7 7 9 11 10 8 8 6 4 3 2 2 2 3 4 4 6 6 7
5 3 3 4 4 4 5 3 3 4 4 2 4 6 3 4 6 4 9 12 12 12 9 8 10 9 12 13 9 10 8 9 9 8 7 7 5 5 4 2 2 1 3 5 6 6 7 7 8
2 6 4 4 3 6 5 2 5 8 2 6 3 6 3 2 3 9 14 16 14 13 11 11 14 14 15 15 12 11 9 9 8 7 7 7 4 3 2 1 1 2 4 5 6 7 9 9 10
5 3 4 2 4 5 6 3 7 6 4 3 1 4 3 3 14 18 16 16 16 13 13 14 16 16 17 15 15 12 11 9 8 8 7 7 6 5 4 4 4 4 5 6 8 9 10 11 11
4 3 4 1 5 5 6 4 4 4 5 5 5 4 3 13 17 16 17 16 15 14 13 13 14 16 14 14 13 12 11 11 9 8 7 6 5 5 5 5 5 5 5 6 8 9 11 13 13
6 4 4 3 3 6 4 2 3 3 6 3 9 5 2 7 15 17 18 17 16 15 14 15 15 14 13 14 13 13 11 10 9 8 7 6 6 6 6 5 7 7 6 6 7 8 10 12 12
5 4 3 3 1 4 5 3 2 2 4 5 5 6 5 9 19 20 19 18 17 16 14 13 13 12 12 12 14 14 13 12 12 11 10 9 8 8 8 8 9 9 9 9 10 11 10 9 12
3 4 1 4 4 1 5 2 3 0 4 2 2 4 5 32 27 23 21 18 17 16 14 13 12 11 12 12 13 12 13 12 11 11 11 10 11 11 11 12 13 11 11 11 13 14 16 16 14
4 3 6 3 2 3 1 2 3 2 2 2 4 10 22 27 23 18 15 14 16 15 15 13 12 12 11 12 12 12 12 11 12 12 12 13 13 14 14 13 14 15 16 15 15 14 16 17 18
2 5 3 3 3 4 1 1 0 6 4 6 7 13 15 20 17 16 13 15 16 14 14 13 12 11 11 11 11 10 10 11 12 13 15 15 15 14 16 18 17 18 19 19 19 18 17 18 19
1 4 3 4 5 5 4 4 3 6 4 3 11 16 13 14 11 15 18 18 16 14 14 13 12 11 11 10 9 10 10 11 12 14 15 17 19 20 20 19 21 22 22 22 22 23 21 20 19
2 2 4 2 9 6 3 8 6 6 3 9 16 13 14 12 13 17 21 19 16 16 14 13 11 11 10 9 9 10 10 11 12 14 17 18 19 20 21 22 22 23 24 24 24 23 23 23 22
4 5 8 5 5 3 5 3 3 2 7 12 15 11 9 10 12 18 21 19 16 14 13 12 11 10 8 10 10 11 11 12 13 15 17 17 19 20 20 21 23 24 25 25 24 23 22 24 23
4 6 6 2 5 1 4 4 6 3 7 12 10 9 8 7 19 19 21 19 16 14 13 11 11 9 8 10 10 11 12 12 14 15 16 18 20 20 21 21 23 25 25 24 25 24 23 22 21
3 3 4 3 8 4 3 6 5 5 10 7 8 8 9 7 10 21 22 20 15 13 11 10 9 9 9 9 10 10 11 13 15 16 17 18 19 21 21 22 23 24 24 23 21 20 22 21 20
6 2 2 7 2 3 2 4 4 4 8 6 6 8 9 8 11 20 21 20 16 13 12 11 9 9 9 9 10 11 12 14 15 16 18 19 20 21 21 22 22 23 24 22 22 22 19 22 22
2 3 3 4 4 3 3 6 3 2 7 10 9 7 8 10 7 20 22 19 17 14 12 11 10 10 10 11 12 13 15 16 16 17 18 19 20 21 23 22 23 24 23 21 22 22 22 20 21
2 2 6 6 6 3 6 4 8 5 5 10 12 13 11 10 10 20 21 19 17 13 12 10 9 9 7 7 8 11 16 15 16 16 17 20 19 19 22 24 24 23 20 21 22 21 22 20 22
4 5 6 7 5 2 6 6 11 4 1 3 7 9 11 7 8 12 18 17 13 14 12 12 11 10 8 7 8 7 9 13 13 13 15 18 19 19 18 22 24 20 19 20 21 22 20 16 23
5 4 5 8 3 2 6 7 5 4 4 7 5 8 9 13 13 10 13 16 16 14 13 13 11 11 10 9 9 9 7 8 10 13 13 16 17 18 19 20 21 20 19 19 19 20 19 17 18
5 7 5 2 3 3 2 5 5 2 2 7 5 7 11 14 11 9 14 18 18 15 14 13 12 11 10 8 9 9 10 7 9 9 10 11 14 16 17 17 19 18 18 18 17 16 17 17 16
5 1 3 2 2 2 3 2 6 5 4 2 3 5 7 8 12 11 15 18 17 16 14 12 12 13 11 8 9 10 12 10 8 9 10 12 14 15 16 17 18 19 18 19 20 20 18 16 14
4 3 5 4 3 1 8 7 4 3 2 1 3 6 9 12 11 10 15 19 18 16 15 12 12 13 11 9 10 11 12 10 11 12 13 14 16 17 17 17 18 19 19 19 20 20 20 20 16
4 5 3 3 2 5 1 2 7 3 4 4 9 9 11 13 11 11 13 18 21 20 17 13 12 14 12 11 14 14 14 14 14 14 13 16 18 20 19 18 18 19 19 18 19 20 21 23 20
6 7 5 5 3 4 3 5 5 3 2 0 6 9 12 14 14 15 18 18 18 21 19 14 13 14 13 13 13 14 15 15 15 14 14 14 16 17 17 17 18 18 18 19 20 21 19 21 22
2 3 3 3 2 2 4 6 4 2 2 3 5 7 10 8 7 8 14 20 21 24 20 18 15 15 14 14 14 14 14 15 15 13 13 13 13 13 17 18 20 18 18 19 21 22 22 22 22
3 2 2 3 1 4 5 5 5 5 8 7 7 11 8 6 8 8 13 20 23 21 18 15 14 15 15 14 12 13 14 14 13 10 11 12 13 16 19 21 21 20 19 20 23 24 24 22 22
3 1 4 3 4 4 6 7 6 10 10 12 15 12 9 9 10 9 12 19 23 21 19 18 14 15 16 14 13 12 13 12 11 11 11 11 12 17 19 20 21 21 22 22 23 25 26 24 23
1 4 5 3 4 3 3 14 2 6 6 6 7 7 6 8 8 8 16 22 25 23 20 18 17 17 16 15 13 12 12 10 10 11 11 11 13 13 16 20 21 21 21 22 24 25 26 28 30
Wind_Direction
330 334 57 55 57 63 273 271 245 299 224 282 2 169 151 43 106 166 106 99 113 112 113 103 118 109 102 85 91 89 85 84 86 87 91 93 105 122 129 134 138 149 175 199 240 284 308 312 309
347 50 66 79 91 77 268 255 298 331 123 110 65 26 48 80 83 108 101 98 104 108 119 106 82 82 106 108 85 90 88 86 84 87 87 91 100 119 123 141 159 217 262 272 278 291 297 301 302
3 51 86 93 112 183 215 216 80 122 150 86 88 44 67 96 95 108 115 122 117 99 99 93 82 81 90 89 92 83 72 76 75 74 72 74 89 102 108 135 165 218 287 289 290 286 278 277 283
24 19 37 86 219 252 220 156 162 149 149 78 114 65 78 340 125 142 137 126 116 113 108 103 84 80 84 84 85 88 77 79 76 73 68 65 57 54 53 23 359 278 280 283 283 287 284 282 281
54 61 52 38 276 272 261 267 177 140 108 86 134 138 73 44 126 132 127 121 120 120 107 104 96 84 84 87 84 87 76 74 71 70 72 64 47 37 20 358 342 322 315 299 287 279 275 276 278
51 98 57 286 262 288 291 289 129 133 128 125 75 106 97 142 134 139 132 125 120 113 114 103 99 94 100 95 92 84 75 70 68 63 60 54 34 26 20 4 350 334 325 321 302 285 278 272 271
112 87 191 210 276 311 306 320 80 96 115 137 145 108 119 153 144 139 129 126 120 114 112 109 103 105 101 91 86 77 69 67 63 56 51 41 22 9 0 344 347 346 325 307 303 299 297 285 284
103 90 152 238 235 286 326 25 17 46 121 105 153 173 189 164 151 141 130 118 112 108 107 109 111 105 96 86 74 69 63 59 55 51 49 41 25 22 12 360 354 336 324 312 293 291 289 290 283
126 69 209 231 167 255 326 336 39 25 80 70 37 153 145 146 151 139 128 114 105 98 97 102 96 87 82 77 72 66 60 53 50 44 36 33 22 14 10 5 356 346 335 320 308 305 296 290 291
83 109 222 239 225 175 227 225 145 95 45 18 45 72 119 133 140 133 131 118 109 98 90 85 84 77 77 77 68 60 57 51 46 38 29 25 20 11 3 357 349 345 337 331 322 310 304 301 298
169 175 212 290 316 353 337 230 196 133 231 205 181 155 139 139 142 136 127 123 113 106 95 89 90 89 83 77 70 69 58 46 36 29 23 18 11 5 360 354 349 343 339 334 329 321 313 309 306
299 216 152 286 345 354 306 126 239 198 205 279 154 151 147 149 144 135 132 132 121 103 86 81 76 74 73 79 76 63 49 39 33 25 15 11 8 2 360 356 350 347 343 338 335 331 325 314 307
191 303 301 265 293 250 278 238 224 231 348 121 132 149 154 146 129 137 136 129 122 106 96 89 89 88 89 88 76 67 59 46 34 23 14 8 5 1 357 355 353 351 348 346 340 334 330 325 318
319 290 289 271 249 264 241 276 148 166 134 133 147 148 146 130 126 124 135 130 123 112 103 100 96 93 92 79 70 63 53 42 29 21 16 10 9 8 4 1 357 355 353 348 344 341 334 326 323
301 315 324 336 333 326 175 297 256 93 140 144 144 138 116 116 133 137 145 137 129 117 113 102 97 93 87 82 75 65 53 37 32 30 24 21 17 13 8 5 1 358 358 355 351 348 342 337 328
15 59 3 298 2 359 109 275 299 156 148 155 117 115 111 98 118 142 144 138 137 130 121 110 103 95 88 83 77 69 60 50 45 38 35 31 23 18 17 12 8 3 2 3 0 353 343 337 328
6 243 241 324 84 308 58 279 291 138 117 104 117 121 124 118 114 143 146 142 140 132 125 117 112 104 101 95 84 77 70 62 57 51 45 36 35 29 24 21 14 9 8 6 0 349 349 336 330
284 317 294 264 287 353 304 252 280 202 150 157 150 144 143 145 142 146 145 144 139 134 125 119 116 114 113 103 92 84 76 67 60 52 45 39 34 32 28 28 21 16 14 6 1 354 346 334 330
317 237 264 277 268 276 244 259 278 227 183 168 168 166 155 144 140 148 147 143 134 122 118 108 110 119 134 119 95 84 76 70 63 56 46 39 33 32 28 29 24 21 13 6 5 357 348 342 345
279 283 276 271 258 270 301 267 264 220 13 192 158 160 152 130 131 127 144 142 136 125 118 111 101 105 108 112 119 101 89 70 64 56 47 37 35 33 30 29 25 17 11 8 6 3 357 343 352
230 220 239 237 329 335 344 309 329 63 99 48 157 152 146 151 145 146 150 148 142 139 132 121 112 106 106 111 112 113 97 81 55 45 42 37 32 31 31 30 26 26 27 10 6 5 7 350 346
245 215 222 188 81 241 26 284 292 280 337 48 43 138 149 153 146 148 147 157 161 150 137 126 122 111 105 107 112 103 93 86 52 40 34 31 31 32 31 30 29 26 29 21 13 6 9 6 355
237 120 139 165 198 59 307 290 277 357 265 336 101 138 143 145 144 150 169 162 159 151 143 134 124 111 111 115 106 95 85 80 76 62 50 39 37 33 33 30 30 30 31 23 23 21 13 12 4
121 77 48 52 96 280 224 179 276 216 261 266 129 148 148 152 155 149 158 161 159 155 146 148 129 120 112 110 99 90 91 90 78 62 55 46 42 36 36 36 37 34 32 31 27 30 31 25 18
94 73 325 334 344 239 182 145 243 265 294 268 174 168 168 167 165 164 160 163 161 163 162 151 141 121 122 111 98 90 84 78 72 67 60 49 42 36 34 36 38 37 35 36 37 37 38 32 20
185 167 175 220 215 251 332 247 247 231 320 68 158 172 178 182 185 180 177 161 159 169 161 166 148 133 127 115 108 93 83 80 74 68 61 55 50 41 42 44 47 43 41 42 45 44 40 39 29
152 176 224 132 62 350 227 292 315 153 234 197 190 189 203 192 172 158 144 169 169 172 173 168 160 148 138 135 118 99 84 76 73 69 68 64 59 52 52 50 51 47 46 48 50 47 45 42 32
157 155 42 50 323 261 277 266 233 255 230 216 218 218 208 180 173 172 169 169 176 176 171 172 169 156 152 143 128 112 92 77 75 80 80 75 68 62 58 55 54 51 49 52 53 49 47 40 34
14 25 73 127 155 218 277 260 219 222 207 201 220 215 199 189 190 175 165 171 175 174 173 172 170 163 155 153 141 121 106 91 81 84 85 78 73 62 58 57 54 53 52 53 55 53 50 45 38
282 212 161 147 231 235 178 267 302 278 238 229 253 239 207 207 180 166 168 168 174 178 174 172 170 167 160 154 146 137 128 112 90 81 84 77 71 66 59 59 58 54 55 54 55 54 53 51 50